CZ-6A DEB, 54587

Orbit data source: Space-Track

CZ-6A DEB, 54587 is space debris in SSO originally from a launch on Fri, 11 Nov 2022 UTC launched from the Taiyaun Space Center, China (TSC). Debris objects in space refer to the collection of defunct objects orbiting the Earth. Examples of debris include non-operational satellites, rocket bodies, and fragments generated from explosions, collisions, or faulty payload assembly.

Loading next visibility...
Identifier
54587, 2022-151MP
Orbit
SSO
Country
Flag of CNCN / PRC
Related business
Manufacturer
SAST
Mission
Spacecraft
Bus & Motor
Unknown
Mass
Unknown
Launch date (UTC)
2022-11-11 (4 years ago)
Launch vehicle
Unknown
Launch site
Taiyaun Space Center, China (TSC)
Object type
Payload
Rocket body
Debris
Shape & HBR
Unknown shape, 0.2 m
Radar Cross Section
Medium (>0.1 m² and <1 m²)

Expand to show TLE details & history
Last TLE update: 12 hours ago

TLE from 12 hours ago
0 CZ-6A DEB
1 54587U 22151MP  26209.14932994  .00000238  00000-0  18915-3 0  9990
2 54587  98.8794 178.0733 0116305 319.5698  39.6865 13.97505409188357
Epoch: 2026-07-28T03:35Z
TLE epoch observation values (Epoch: 2026-07-28T03:35:02.106Z)
Latitude
-0.00005°
Longitude
178.49183°
Altitude
840.557 km
Speed
7.465 km/s
True Right ascension
11h 52m 17s
True Declination
0° 00' 00"
Sunlit
Object was in daylight at epoch
Visualization orbit readout
Latitude
Unknown
Longitude
Unknown
Altitude
Unknown
Speed
Unknown
Apparent Right ascension
Unknown
Apparent Declination
Unknown
Sunlit
N/A
Visualization observer readout
Local Sidereal Time
05:26:01
Azimuth
Unknown
Elevation
Unknown
Doppler factor
Unknown
Orbital elements
Apogee altitude
984.287 km
Perigee altitude
814.998 km
Semi-major axis
7,277.78 km
Eccentricity
0.01163
Inclination
98.8794°
RAAN
178.0733°
Arg. of periapsis
319.5698°
True anomaly
40.54717°
Mean anomaly
39.6865°
Eccentric anomaly
40.11587°
Mean motion
3.49579 °/min
Orbital period
102.98 mins
BSTAR
0.00018915
Loading maneuver chart data...
Computing Atmospheric mass density...
Loading historical data...
Loading historical data...
Loading historical data...
Loading historical data...
Loading historical data...
Loading historical data...
Loading historical data...

Documentation

Showing up to 5 results
|